Weather in Syga 2

Russia / Udmurt Republic     57°52′02″N   53°33′50″E
temp.,
°C
wind,
m/s
gust,
m/s
humid.,
%
clouds,
%
prec.,
mm/h
press.,
hPa
HPBL,
m
15 april, thu
thu1501:00+7ssw29925 0.0 1024140
04:00+6ssw249587 0.0 102368
07:00+6s269771 0.0 1023112
10:00+12ssw478468 0.0 1021310
13:00+16sw466699 0.0 1020983
16:00+16wsw357048 0.1 10191008
19:00+11nnw369199 1.5 1020167
22:00+6nne51088100 2.1 1023548
16 april, fri
fri1601:00+5ne41185100 0.4 1025612
04:00+4ne5117696 0.4 1027676
07:00+2ne411744 0.0 1028686
10:00+5ne57520 0.0 1029855
13:00+8ne45430 0.0 10291085
16:00+8ne45400 0.0 10281157
19:00+5ne24610 0.0 102870
22:00+2ne25724 0.0 1030102
17 april, sat
sat1701:00+1ne23755 0.0 103042
04:000nne22755 0.0 103024
07:00+2nne24690 0.0 1030150
10:00+7n24505 0.0 10291058
13:00+9nnw244513 0.0 10281632
16:00+10nnw344376 0.0 10271791
19:00+7nw23615 0.0 102659
22:00+4nw24735 0.0 102679
18 april, sun
sun1801:00+2wnw28800 0.0 1025177
04:00+1wnw39864 0.0 1024205
07:00+2nnw311825 0.0 1024514
10:00+3ne577895 0.0 1026904
13:00+6ne673867 0.0 10271847
16:00+5ne67325 0.0 10291962
19:00+3ne49425 0.0 1030820
22:000ne38600 0.0 1033255
19 april, mon
mon1901:00−1ene38665 0.0 1034357
04:00−2ene26755 0.0 1036265
07:00−1e36520 0.0 1037498
10:00+2e35300 0.0 10371501
13:00+5e33271 0.0 10361671
16:00+5e23280 0.0 10351668
19:00+2e22455 0.0 103519
22:00−1ese11545 0.0 103510